Wind_Speed
2 4 3 4 5 12 9 11 8 15 11 5 15 15 10 7 6 4 3 4 6 6 10 14 17 20 22 24 28 28 27 29 31 31 31 34 32 34 37 39 39 39 43 46
4 6 7 10 14 15 14 15 12 8 22 6 5 10 7 8 7 5 4 4 5 7 11 13 16 18 20 24 25 25 28 30 31 33 33 33 36 35 38 40 43 48 48 47
5 2 5 6 11 11 5 6 7 10 10 8 5 11 10 9 7 5 5 5 5 6 9 11 13 15 20 21 21 24 27 30 32 32 33 34 32 36 39 40 41 43 45 43
2 2 3 7 3 4 6 8 8 2 3 6 10 8 9 6 6 7 6 6 5 6 7 10 14 17 17 20 23 25 27 28 31 32 32 34 36 36 36 36 39 39 40 42
2 3 7 10 4 4 5 6 6 8 11 12 13 8 3 6 4 4 5 8 7 6 7 12 15 17 20 23 27 28 28 27 27 27 29 34 34 34 33 34 36 37 38 40
3 3 4 4 2 3 3 5 7 9 14 16 10 5 3 10 9 10 10 11 10 9 10 14 14 17 22 23 28 30 28 27 26 26 28 30 32 30 30 30 32 32 36 37
4 4 7 5 5 4 4 5 8 12 15 16 7 2 10 12 11 12 14 13 12 13 14 14 15 17 22 22 22 21 25 28 30 29 29 28 29 31 30 30 31 32 32 34
4 6 11 5 4 6 4 2 6 7 11 11 8 12 14 13 11 15 14 15 14 16 16 15 15 18 20 21 19 18 18 21 26 29 29 31 32 32 33 28 28 28 29 30
9 6 3 4 2 1 3 4 5 10 11 13 14 9 13 13 12 15 18 17 16 17 16 15 15 15 19 17 16 18 20 22 19 22 27 28 29 28 27 26 26 24 25 26
2 4 5 4 1 2 3 5 6 8 15 15 13 15 13 12 12 16 16 19 19 17 16 15 14 16 16 16 16 18 20 21 21 20 19 18 28 27 26 26 23 24 22 23
5 4 4 7 6 5 3 5 9 10 11 14 18 15 14 12 15 17 17 18 18 16 15 13 14 16 14 13 15 18 19 19 19 20 21 22 25 23 27 27 25 22 27 22
6 5 3 4 4 7 7 6 11 14 10 12 17 18 19 14 19 20 18 18 17 15 14 13 14 14 15 13 14 16 15 17 19 20 20 21 21 20 20 21 22 22 22 23
3 2 2 1 5 4 6 9 9 10 13 17 17 22 21 19 19 20 20 18 17 15 13 13 14 15 15 14 15 17 18 16 17 17 17 16 17 18 21 20 19 19 21 21
4 6 3 3 4 7 7 10 14 14 16 19 21 22 21 20 22 20 19 19 18 17 15 13 12 15 15 13 13 15 16 14 14 15 15 15 15 16 17 18 19 20 20 19
6 3 3 6 7 8 14 14 11 11 13 15 21 21 22 21 19 19 22 19 17 17 15 13 13 13 11 10 10 9 11 12 12 10 11 13 13 14 15 16 17 17 17 18
3 4 6 7 9 10 12 11 12 12 11 16 18 20 21 21 22 24 22 21 22 19 18 16 14 12 11 10 10 9 9 7 9 10 10 11 12 13 14 14 15 16 18 20
6 3 5 8 10 11 11 10 10 11 16 18 17 21 23 23 22 21 19 17 16 19 18 16 15 12 10 8 7 8 7 7 8 8 10 11 12 14 14 14 15 15 16 16
2 4 6 7 10 9 9 12 15 17 17 19 21 22 22 22 19 21 20 20 21 19 18 16 14 11 8 6 4 4 5 5 6 8 8 10 11 11 12 12 13 14 13 14
7 7 8 9 11 11 12 14 17 18 22 23 22 18 19 21 25 25 23 23 22 22 19 18 14 11 6 4 4 1 2 3 4 6 7 8 9 10 10 10 10 11 13 14
5 9 12 13 15 17 16 19 22 20 22 23 21 20 19 21 24 25 23 21 21 17 20 16 12 8 4 5 2 1 1 2 3 5 6 7 8 9 9 8 10 11 12 13
7 11 12 12 11 17 23 26 24 19 22 25 23 21 22 24 26 25 21 15 17 15 17 12 10 9 3 2 2 1 1 2 3 5 5 7 7 7 6 7 9 10 12 13
8 7 9 13 13 13 18 23 23 24 24 21 19 21 24 24 24 23 19 17 17 17 17 13 14 7 3 3 3 2 1 1 3 4 5 6 6 6 7 8 10 11 13 14
9 12 13 13 13 14 17 19 23 26 24 24 23 24 25 25 26 20 13 14 18 18 15 13 11 6 5 4 3 2 1 1 3 4 4 5 6 6 7 9 11 13 14 13
13 13 12 14 18 17 12 13 19 20 21 21 20 23 25 22 18 15 11 17 18 17 14 14 10 7 6 3 2 1 1 2 3 3 4 5 5 6 9 11 12 13 12 12
14 14 14 15 11 8 14 17 17 16 17 15 16 20 19 21 22 20 12 20 19 17 17 13 11 8 5 2 0 1 1 2 3 4 4 4 5 8 11 12 12 11 11 12
11 10 11 10 10 15 16 16 13 16 16 15 16 19 16 17 15 19 17 20 19 18 16 14 12 7 3 1 0 0 2 3 4 4 4 5 8 10 13 12 12 12 12 13
9 10 10 9 9 13 17 16 16 15 18 20 19 20 18 19 17 19 21 20 19 18 17 14 10 6 3 1 1 2 3 3 4 4 5 7 9 12 12 12 11 11 12 14
Wind_Direction
274 243 237 235 223 241 218 238 231 267 244 224 209 193 176 146 134 121 83 48 24 6 353 356 3 7 9 11 11 12 12 15 12 14 21 26 26 30 32 33 35 38 39 38
309 263 251 260 253 251 241 250 254 252 265 177 118 122 143 143 143 138 116 74 39 18 12 10 6 8 12 14 11 15 20 20 21 24 24 26 27 29 33 32 34 35 37 36
255 280 305 288 250 227 225 207 206 229 249 156 157 156 151 146 147 150 130 98 65 31 22 8 12 14 17 16 16 25 26 24 27 28 31 31 29 32 33 33 35 36 35 36
238 15 260 245 215 216 226 248 225 191 155 163 132 102 112 123 139 153 138 118 86 53 31 37 46 43 34 32 33 32 31 25 25 29 32 37 35 34 33 35 37 36 36 36
167 206 287 290 210 193 186 285 186 142 129 118 113 90 74 136 129 126 122 123 110 88 72 66 60 57 58 47 44 40 32 27 26 27 31 37 36 33 34 36 37 37 37 38
153 199 252 243 206 154 117 286 156 145 159 150 144 161 197 155 141 135 134 125 115 98 86 77 68 72 68 62 54 49 43 36 38 34 37 36 38 37 37 39 40 40 39 39
195 230 274 239 163 146 85 245 163 163 162 160 178 207 138 138 140 143 139 127 114 101 88 84 84 83 74 69 63 58 54 51 51 53 46 45 43 43 42 39 40 39 40 38
196 219 257 136 93 179 205 72 147 153 161 152 117 123 133 138 139 145 139 129 120 105 94 96 95 85 78 74 76 70 63 57 54 54 55 53 47 44 44 41 41 39 37 37
190 210 203 234 212 12 147 140 167 149 157 141 138 145 147 147 150 153 148 139 125 114 103 96 96 96 84 82 85 81 75 66 63 59 58 56 51 43 39 41 42 41 42 36
131 221 226 240 179 201 178 171 150 151 151 151 148 150 148 151 150 153 151 142 134 121 107 98 101 101 99 94 92 84 75 70 64 57 57 57 55 50 43 38 44 42 42 43
269 283 310 249 218 172 137 126 117 139 156 158 147 156 156 157 157 157 153 149 145 132 119 107 106 101 103 103 95 84 78 74 70 66 62 62 60 51 52 47 48 51 51 47
215 202 169 233 191 149 145 158 154 148 140 156 159 155 157 157 158 160 158 153 147 142 132 120 105 103 95 93 94 89 82 74 70 68 65 62 63 63 56 53 52 51 50 48
212 149 107 105 121 120 133 151 156 156 156 152 156 153 156 153 154 150 149 152 155 151 143 132 115 101 101 97 89 83 83 79 77 72 71 70 67 62 58 57 55 51 47 47
139 121 76 194 190 159 136 142 148 140 148 151 148 151 149 148 150 147 152 159 162 154 150 143 132 114 108 101 97 89 82 82 80 74 69 64 62 57 51 45 42 42 43 39
178 347 173 125 121 130 139 139 139 143 147 146 151 149 150 147 147 146 158 154 152 156 154 145 134 128 123 115 110 116 101 86 78 73 65 57 50 50 48 44 40 34 31 32
135 91 120 141 150 152 153 154 149 152 152 148 144 147 144 142 144 149 160 164 159 157 153 149 139 128 127 122 106 98 114 91 66 54 57 52 46 44 45 42 34 30 29 22
113 148 153 165 169 167 171 163 156 153 148 148 149 139 138 137 141 152 163 167 160 150 151 149 138 130 129 127 104 95 96 82 62 52 46 46 39 36 32 28 29 30 26 21
149 152 176 170 173 170 152 148 144 143 149 147 140 144 142 149 153 158 163 158 149 146 150 149 144 136 135 139 136 95 73 63 46 50 47 33 33 30 23 26 31 27 21 18
172 162 160 152 166 155 144 131 136 137 139 148 151 155 158 161 164 165 163 165 161 158 159 151 149 137 120 141 156 105 73 43 40 46 35 26 24 20 15 20 25 19 12 9
127 146 147 141 147 145 131 134 140 143 155 156 159 156 156 167 170 167 170 171 174 170 164 163 160 150 123 149 177 137 66 30 39 46 27 26 18 10 5 17 15 7 5 5
130 132 142 161 136 143 147 152 151 150 156 168 168 170 168 173 173 169 166 164 167 164 169 172 174 169 147 157 183 182 307 1 28 34 17 17 10 4 357 359 1 360 356 352
121 130 133 141 137 134 153 159 159 157 162 165 171 178 169 166 172 173 179 180 175 171 172 173 171 170 179 187 192 206 215 353 33 21 10 6 358 349 345 350 352 349 344 339
136 144 144 139 139 139 147 156 161 165 165 172 176 178 172 173 175 168 173 170 172 171 174 177 183 186 185 189 200 220 246 30 16 10 3 351 343 337 338 342 340 336 335 334
132 139 135 140 142 133 129 147 161 171 177 177 185 184 173 162 176 184 173 183 178 180 185 179 179 176 179 190 206 257 12 32 12 353 338 331 321 328 333 335 332 329 324 325
141 140 144 142 138 134 140 151 153 159 162 165 176 183 183 187 180 176 172 170 175 177 171 173 173 173 174 160 117 38 38 358 339 327 319 314 324 333 337 337 333 329 320 319
144 144 154 160 158 156 156 157 151 156 153 152 171 175 178 183 180 181 183 177 175 177 174 174 175 178 175 160 116 17 330 318 317 311 310 319 327 333 336 335 331 328 325 320
142 148 144 140 163 173 171 166 157 162 170 168 161 169 173 171 175 169 170 172 176 178 177 175 180 185 184 184 255 278 287 305 316 307 309 320 328 333 334 334 335 335 332 328
Height
800 795 794 795 796 793 806 790 802 781 790 795 794 800 810 814 820 824 827 828 827 827 825 822 817 812 808 803 798 792 786 780 773 767 760 752 746 740 734 726 721 716 709 704
834 797 798 800 795 788 796 790 791 799 774 785 792 800 810 813 818 823 826 828 828 828 826 823 820 816 812 806 803 797 791 785 780 772 765 759 753 747 740 735 728 721 715 715
819 798 796 803 780 782 784 777 774 779 765 788 796 796 805 812 817 822 825 827 829 829 827 826 822 819 814 811 807 801 796 791 786 781 774 768 764 756 749 745 741 736 733 731
817 802 810 779 775 774 775 769 771 775 782 783 790 801 808 814 818 822 826 828 829 830 829 827 824 821 819 815 810 805 801 797 793 788 783 777 771 765 762 758 753 751 750 746
801 801 787 764 769 772 773 766 767 777 783 795 801 807 815 816 820 824 828 829 830 831 830 828 826 824 820 817 813 809 807 804 801 796 791 785 779 776 773 769 765 763 761 758
803 808 794 767 763 764 767 787 771 773 786 793 799 803 810 816 821 826 828 829 831 831 831 829 829 827 823 821 819 817 815 812 808 804 799 794 789 786 784 780 777 774 772 770
787 789 774 759 763 764 789 774 770 775 783 791 794 799 803 814 822 826 828 830 832 832 832 831 831 829 826 825 824 825 823 820 816 811 807 804 800 794 790 787 785 783 781 779
786 787 776 758 766 769 764 765 769 777 782 791 799 804 807 814 820 825 828 831 833 833 833 833 833 831 830 829 830 829 827 826 823 819 815 811 806 803 798 795 792 791 789 788
767 761 762 760 760 760 763 766 771 774 781 790 798 805 810 815 819 824 827 831 833 834 835 835 834 834 833 833 833 831 830 829 827 825 821 818 813 811 807 804 801 799 797 796
759 757 761 760 761 761 762 763 767 771 779 786 793 803 809 814 819 823 827 830 833 836 837 837 836 835 835 835 834 833 832 831 830 828 826 823 821 818 815 811 809 807 805 803
764 766 761 759 759 760 765 766 769 775 778 784 790 800 805 811 817 822 827 830 833 836 837 839 838 837 837 836 836 834 835 834 833 832 830 827 825 824 821 819 818 815 813 810
754 747 747 756 755 759 764 767 768 772 780 786 788 793 802 809 814 820 825 829 832 836 838 839 838 838 837 838 838 837 837 837 836 834 833 832 831 830 828 826 824 822 819 816
748 749 754 757 757 759 763 766 769 772 776 780 789 794 800 807 813 818 824 828 832 834 837 839 840 839 839 841 841 840 839 840 839 838 837 837 835 833 832 830 828 826 823 820
749 751 756 756 759 760 763 767 771 775 779 782 786 794 800 806 813 818 822 826 830 834 837 840 840 840 841 842 843 843 843 842 841 842 841 839 837 835 833 832 829 827 825 823
750 749 749 752 757 761 764 768 773 777 780 785 789 794 800 806 812 817 822 827 830 834 837 839 841 842 842 843 844 845 845 845 844 844 842 840 838 837 835 833 831 830 827 825
749 751 753 755 759 762 765 770 773 777 782 786 790 795 801 807 813 818 823 826 829 831 835 839 842 842 843 845 845 846 845 846 844 844 842 840 840 839 837 834 833 832 829 826
751 755 756 758 759 761 765 769 772 777 782 787 792 797 802 808 814 820 824 828 830 832 836 839 841 843 844 845 846 847 846 845 843 843 843 841 840 839 838 835 833 833 831 828
745 748 751 753 757 761 765 769 773 778 782 788 794 799 803 808 813 820 824 828 830 833 837 839 842 844 845 846 847 847 846 845 845 843 842 841 841 840 839 838 835 834 833 831
746 748 750 753 757 761 765 769 774 779 784 789 796 801 804 809 813 819 824 828 829 832 836 838 842 843 845 846 847 846 846 846 845 844 843 842 841 841 841 839 837 835 833 831
746 749 751 755 758 761 766 770 775 781 785 790 797 801 806 810 814 819 824 827 829 833 835 839 841 842 845 845 846 846 847 846 845 844 844 843 842 842 842 839 837 835 833 831
746 749 754 757 760 762 765 770 775 781 786 790 796 800 804 809 814 819 824 827 831 833 836 839 841 842 843 844 845 846 847 846 845 844 843 843 843 843 842 840 837 835 833 831
749 752 756 758 761 765 768 771 776 781 786 791 795 800 804 809 814 819 823 826 829 832 836 838 840 842 843 844 845 846 846 845 844 843 843 843 843 843 841 838 836 833 831 830
752 754 757 760 763 766 770 773 776 780 785 789 794 799 803 807 812 817 822 825 828 832 835 837 840 841 843 844 845 846 845 843 843 843 843 843 843 842 840 838 835 832 830 828
754 757 759 762 765 769 772 776 779 782 786 791 795 799 803 808 814 817 820 823 827 831 834 836 838 840 842 844 844 844 842 842 842 843 843 842 842 841 839 836 834 831 829 827
756 759 762 765 768 771 774 777 781 785 788 792 796 800 804 807 810 815 819 823 827 830 833 836 838 841 842 842 842 841 841 842 842 843 842 842 840 839 836 834 832 829 827 824
759 762 764 766 768 771 774 778 781 785 788 792 796 800 804 807 811 815 819 823 827 830 833 836 838 840 841 841 841 841 841 842 842 842 841 840 838 837 834 832 830 827 824 822
761 763 766 769 770 772 775 778 781 784 788 791 795 800 803 807 811 814 818 823 826 830 833 836 838 839 840 840 840 841 842 842 841 840 840 839 837 835 832 830 827 825 823 820